Wind_Speed
45 45 44 39 38 39 39 38 38 37 37 37 38 40 40 39 41 44 44 46 46 43 42 44 45 46 46 43 42 42 43 47 54 54 56 58 58 57 55 52 50 48 46
41 40 37 36 35 36 36 38 40 39 40 43 43 44 46 45 45 46 46 46 48 49 48 46 48 49 48 48 47 46 46 46 48 50 51 54 57 59 58 58 55 53 52
33 34 33 33 35 38 40 42 46 49 50 51 53 52 52 54 55 53 54 54 55 55 55 54 52 50 52 53 51 50 50 51 51 51 51 50 53 57 61 61 60 58 57
28 30 32 35 37 40 43 45 46 48 51 54 56 59 59 59 59 59 60 61 62 61 62 62 61 60 57 56 57 58 56 52 53 54 53 51 51 53 59 63 64 63 60
33 35 38 40 41 40 40 41 43 46 49 52 55 57 59 62 64 65 66 66 67 67 66 66 65 66 66 65 64 62 60 61 58 56 55 56 56 55 56 60 62 63 62
39 39 39 39 38 40 42 44 47 50 53 56 58 60 61 62 64 67 70 71 71 71 72 71 70 70 71 68 68 69 68 66 65 64 59 61 60 60 57 58 61 64 64
37 37 37 39 41 42 44 48 53 58 62 63 63 62 62 61 62 63 66 70 74 75 75 75 76 75 74 74 74 71 71 72 71 68 67 66 61 60 62 61 61 63 62
36 38 40 40 41 44 49 55 60 64 63 61 58 57 58 60 63 64 66 68 69 70 73 75 78 78 76 76 77 77 76 74 74 73 73 70 65 63 61 60 59 63 64
39 40 40 42 44 48 53 59 62 61 55 53 55 56 61 64 70 73 73 72 71 70 69 69 72 75 77 77 78 80 80 80 76 75 74 73 71 68 63 62 65 62 62
39 39 40 41 45 50 57 61 58 53 53 55 57 61 64 69 63 58 54 53 51 48 46 48 51 57 62 68 75 79 80 80 78 77 75 74 72 71 67 66 65 66 66
39 38 39 42 47 53 59 59 52 52 55 58 60 62 64 57 49 44 39 38 38 39 41 44 47 52 57 62 66 70 75 77 78 78 77 76 73 72 71 69 70 68 67
39 38 40 45 48 54 58 52 50 53 57 58 61 63 58 47 41 38 38 39 40 44 47 49 53 55 57 59 62 67 69 72 72 75 77 77 77 74 72 70 67 68 67
39 39 43 46 49 54 54 49 50 53 56 57 60 62 53 42 37 35 36 38 41 44 44 45 48 52 57 60 60 61 64 68 68 67 72 75 75 73 69 66 63 62 63
39 40 44 46 49 53 52 48 50 53 53 56 58 58 49 41 36 35 37 38 39 40 41 43 46 48 47 47 51 56 57 57 61 64 66 69 67 67 68 64 60 59 59
39 41 44 47 50 52 50 47 50 50 51 55 57 56 51 44 38 36 36 36 36 38 40 42 45 46 45 45 43 45 49 51 52 51 53 59 59 61 62 61 57 55 56
39 42 44 47 50 52 50 46 44 46 47 49 51 50 50 46 41 37 36 35 33 33 36 38 39 40 42 42 44 43 42 40 33 32 36 44 48 48 53 54 51 51 52
38 41 45 49 52 52 48 47 52 38 39 44 45 43 42 41 37 35 34 32 28 28 28 30 37 39 36 33 33 34 31 24 29 35 30 35 40 45 50 49 46 45 47
40 44 47 50 51 49 45 45 47 45 44 36 32 35 35 34 32 32 31 28 24 20 23 25 33 33 24 24 26 26 17 21 25 32 38 38 37 40 44 46 45 43 43
43 46 49 51 50 46 42 42 41 39 40 41 37 29 29 28 29 30 29 29 25 21 21 23 26 22 16 20 22 19 19 21 22 23 24 27 29 35 42 43 42 41 40
46 48 50 50 47 42 39 39 36 35 35 36 35 34 31 28 26 25 26 25 24 23 23 22 21 19 17 16 16 15 15 7 14 15 17 23 27 31 33 36 37 37 37
48 49 50 48 43 38 36 35 32 31 30 31 31 31 32 31 31 29 28 27 26 24 23 23 24 22 21 21 19 15 9 7 12 15 16 19 21 24 29 32 33 32 31
48 49 46 43 36 34 33 31 29 28 27 27 27 27 28 28 28 29 29 28 28 27 26 24 23 23 22 22 21 19 18 16 14 16 18 19 21 22 23 24 25 25 26
47 44 40 36 31 31 30 28 26 25 25 25 25 25 25 26 27 27 27 27 26 25 25 24 22 20 18 18 18 18 18 20 20 18 19 22 23 23 22 19 18 18 18
43 39 34 29 28 28 27 26 24 23 23 23 23 23 23 24 25 26 26 26 25 25 23 22 22 21 19 18 17 16 15 17 19 20 19 18 20 22 23 22 21 20 19
37 33 27 26 26 26 26 24 23 22 22 22 22 21 21 22 23 24 24 25 25 24 24 23 21 20 19 19 17 15 15 14 13 13 12 13 15 17 19 19 18 19 21
30 25 23 24 24 25 24 23 22 22 21 21 22 21 20 20 21 21 22 22 22 23 22 22 21 21 20 19 18 18 15 11 8 8 7 7 8 11 13 14 14 15 16
Wind_Direction
304 306 305 300 295 294 294 293 291 288 285 283 279 274 275 270 266 265 268 272 272 269 266 266 262 261 259 256 256 259 264 262 266 268 262 260 258 254 251 248 247 247 250
307 304 301 298 297 296 295 293 291 291 290 291 289 286 284 284 281 276 272 270 269 269 268 264 262 262 260 259 257 253 254 257 262 268 264 261 258 257 255 250 246 244 246
300 297 294 292 293 295 294 293 293 293 293 292 291 290 287 286 285 283 281 278 273 270 269 267 264 262 262 261 261 259 257 253 253 258 264 261 257 257 255 254 252 249 245
296 296 297 300 301 301 300 297 295 292 291 289 288 289 289 288 286 284 281 278 276 273 271 269 267 265 263 262 262 260 260 260 257 254 254 258 262 258 255 253 251 251 250
293 299 304 305 303 301 300 300 298 297 296 294 292 289 288 287 287 286 283 280 276 273 272 270 269 267 265 264 261 260 260 260 257 258 256 254 255 259 260 258 254 252 250
306 306 305 304 305 306 305 305 304 303 302 300 298 295 292 288 286 285 284 282 279 277 275 271 268 267 266 264 263 262 260 258 256 256 255 256 255 257 254 255 256 253 249
301 302 304 306 306 306 306 307 308 307 306 304 301 298 293 290 286 283 281 279 278 276 274 273 271 268 265 264 262 260 260 260 258 256 254 253 255 256 257 252 251 255 252
301 303 305 305 305 306 310 311 311 309 306 304 301 299 296 294 290 287 285 281 278 276 274 272 270 268 267 266 263 260 258 256 257 257 256 253 252 252 255 256 254 251 251
301 302 302 303 305 309 311 313 312 309 306 304 303 301 301 298 297 292 286 282 280 278 276 274 271 270 267 267 265 262 259 256 255 254 254 254 253 252 251 250 254 254 249
299 299 301 303 307 311 314 315 312 309 307 307 307 307 307 307 299 293 287 282 281 280 280 279 278 276 273 270 268 265 262 259 255 253 251 251 251 251 251 250 247 252 255
297 300 302 305 309 314 317 315 310 309 310 310 311 313 315 307 300 297 291 286 284 283 283 284 283 280 277 272 270 267 264 260 255 254 252 249 248 247 248 248 248 246 250
297 300 302 308 314 317 318 313 310 312 311 314 316 317 316 308 302 297 293 291 289 288 288 287 288 288 286 279 274 267 264 260 258 252 250 249 247 246 245 246 248 249 248
297 299 304 311 316 319 317 312 313 314 314 319 319 319 318 312 304 296 292 289 287 286 289 290 291 290 288 284 276 271 265 259 252 249 246 248 248 247 247 246 245 247 249
294 299 306 311 315 320 317 313 315 316 318 320 320 319 321 319 316 308 303 299 297 296 299 300 298 294 292 289 283 278 270 263 254 248 243 245 246 247 247 246 245 245 247
294 301 306 311 315 319 316 314 317 319 322 322 323 323 323 322 320 313 309 305 304 306 307 305 305 304 304 306 295 280 271 264 255 245 243 242 242 245 247 248 247 245 245
295 302 307 311 315 318 315 313 318 320 321 322 324 322 319 319 319 312 309 308 308 309 306 309 312 310 309 309 310 296 277 265 249 226 237 236 239 235 245 247 247 244 245
296 303 309 311 314 316 313 314 317 319 322 324 324 320 316 316 315 311 311 311 314 311 314 319 320 317 313 312 317 310 286 246 224 224 229 227 239 242 244 244 246 244 243
298 305 309 311 313 313 311 314 317 320 324 327 328 324 319 318 317 315 314 314 317 315 320 324 331 324 323 327 329 329 298 216 223 231 235 242 247 246 244 244 243 242 242
298 304 307 309 310 310 308 314 317 319 321 326 331 333 325 322 318 319 321 319 318 313 315 323 330 334 342 344 341 329 297 241 229 232 240 242 240 231 238 241 241 240 239
297 302 305 306 307 305 307 313 316 316 320 327 332 337 338 335 335 332 328 322 317 312 305 312 321 332 322 325 338 341 6 277 241 257 261 254 244 236 236 239 238 238 240
296 300 302 302 301 301 305 311 313 314 321 328 333 340 343 345 344 344 344 341 334 325 319 315 305 307 311 313 309 305 300 303 296 285 275 254 244 239 238 239 239 240 237
295 298 297 296 295 298 305 309 310 314 321 327 334 338 341 342 343 346 348 348 347 344 339 334 328 323 318 317 312 302 291 277 257 255 248 243 239 235 235 234 230 227 227
294 294 293 291 290 297 302 306 307 312 319 325 332 338 340 343 346 347 349 352 350 347 347 346 344 340 334 326 316 307 295 283 270 248 236 232 228 226 221 217 218 219 225
290 288 287 283 289 296 299 301 305 309 314 320 328 334 340 345 351 353 353 356 355 356 355 350 346 346 342 333 326 318 304 287 272 267 267 257 247 233 220 215 213 215 220
284 282 277 281 289 294 297 299 300 304 308 313 321 327 332 339 345 349 352 356 357 359 1 2 2 3 2 354 341 327 314 307 298 284 274 265 255 241 230 222 218 219 221
275 269 274 283 289 291 293 295 296 299 303 309 312 318 323 329 335 339 344 349 353 356 359 2 5 7 9 8 12 14 8 354 326 302 287 264 241 224 215 210 210 210 209
Height
3062 3060 3057 3054 3051 3048 3045 3042 3040 3039 3037 3036 3034 3032 3030 3027 3023 3021 3019 3018 3016 3015 3014 3013 3012 3009 3008 3007 3007 3006 3005 3004 2998 3004 3009 3017 3020 3024 3028 3031 3033 3035 3037
3053 3051 3048 3045 3043 3040 3036 3034 3032 3030 3028 3027 3023 3019 3017 3015 3012 3008 3006 3004 3002 3002 3001 2998 2999 2998 2995 2994 2992 2992 2991 2991 2990 2989 2993 2999 3004 3008 3012 3014 3017 3020 3023
3043 3041 3039 3036 3034 3031 3029 3026 3023 3019 3016 3014 3009 3006 3003 3001 2998 2993 2990 2988 2987 2986 2985 2985 2984 2981 2983 2982 2979 2979 2979 2976 2975 2975 2978 2982 2987 2992 2994 2999 3002 3006 3008
3034 3032 3030 3027 3024 3021 3018 3015 3011 3008 3004 3001 2996 2991 2987 2984 2980 2976 2972 2970 2969 2969 2968 2967 2966 2966 2964 2964 2965 2965 2965 2963 2962 2961 2963 2964 2969 2975 2979 2981 2984 2989 2995
3027 3024 3020 3017 3013 3010 3006 3003 3000 2996 2991 2986 2981 2977 2972 2967 2962 2955 2951 2949 2948 2949 2949 2949 2946 2948 2948 2947 2945 2949 2947 2948 2948 2947 2948 2949 2951 2953 2961 2968 2970 2973 2978
3014 3011 3008 3005 3002 2999 2995 2991 2987 2982 2977 2972 2967 2960 2956 2952 2945 2938 2931 2926 2925 2924 2924 2925 2926 2927 2926 2928 2927 2926 2928 2929 2931 2930 2933 2934 2939 2937 2940 2946 2953 2954 2958
3004 3001 2997 2994 2991 2987 2983 2979 2973 2967 2961 2954 2948 2941 2936 2932 2925 2919 2913 2907 2904 2902 2902 2901 2901 2903 2904 2903 2904 2905 2906 2908 2910 2914 2914 2920 2922 2924 2925 2925 2928 2936 2942
2993 2989 2986 2983 2980 2976 2971 2965 2959 2951 2944 2936 2929 2922 2916 2910 2903 2897 2892 2887 2884 2882 2880 2877 2875 2877 2878 2877 2878 2879 2883 2886 2890 2891 2892 2902 2903 2907 2907 2909 2910 2915 2919
2984 2980 2976 2972 2968 2963 2958 2952 2944 2935 2928 2921 2914 2906 2897 2889 2880 2872 2866 2862 2860 2859 2857 2856 2852 2851 2853 2853 2850 2850 2854 2860 2869 2869 2873 2879 2882 2886 2889 2890 2892 2894 2897
2974 2971 2967 2963 2958 2952 2945 2937 2928 2920 2913 2905 2898 2889 2878 2867 2856 2847 2841 2837 2837 2837 2837 2835 2834 2831 2829 2827 2822 2825 2826 2837 2841 2845 2850 2855 2860 2864 2868 2869 2877 2874 2881
2964 2961 2957 2952 2946 2940 2932 2923 2915 2907 2899 2891 2881 2871 2859 2848 2839 2833 2829 2825 2822 2822 2820 2819 2816 2813 2810 2806 2801 2800 2801 2807 2812 2816 2821 2828 2835 2842 2846 2851 2855 2859 2862
2954 2950 2946 2941 2935 2928 2920 2912 2904 2895 2885 2875 2863 2853 2844 2834 2829 2824 2819 2815 2811 2807 2805 2801 2797 2793 2789 2786 2781 2780 2779 2779 2782 2788 2794 2801 2809 2818 2827 2834 2839 2841 2847
2944 2940 2935 2930 2923 2916 2907 2900 2893 2884 2873 2861 2849 2838 2830 2823 2818 2814 2810 2805 2800 2794 2791 2787 2781 2775 2768 2762 2759 2757 2756 2754 2757 2762 2769 2777 2788 2799 2807 2813 2820 2824 2829
2935 2930 2925 2919 2913 2905 2897 2889 2881 2873 2861 2850 2839 2827 2818 2811 2806 2800 2795 2790 2786 2781 2776 2770 2765 2758 2752 2744 2738 2735 2734 2735 2736 2741 2750 2759 2769 2776 2783 2793 2801 2808 2811
2925 2920 2915 2909 2901 2894 2886 2879 2871 2863 2850 2837 2826 2815 2807 2803 2798 2791 2785 2780 2774 2769 2762 2756 2749 2741 2733 2727 2721 2717 2715 2715 2718 2726 2735 2743 2752 2759 2765 2775 2784 2790 2793
2914 2910 2904 2898 2891 2883 2875 2870 2867 2854 2844 2832 2820 2810 2801 2795 2788 2783 2777 2771 2766 2760 2753 2746 2739 2732 2724 2716 2707 2701 2699 2700 2707 2716 2725 2733 2738 2745 2750 2758 2767 2773 2779
2904 2900 2894 2888 2880 2873 2866 2858 2849 2852 2841 2826 2815 2806 2797 2788 2782 2775 2769 2764 2759 2752 2746 2740 2732 2723 2715 2709 2701 2691 2686 2691 2700 2708 2715 2720 2727 2733 2738 2745 2751 2758 2763
2893 2888 2883 2877 2870 2863 2856 2849 2841 2832 2826 2825 2817 2802 2793 2784 2776 2768 2762 2756 2752 2747 2740 2734 2727 2718 2710 2704 2697 2690 2685 2690 2696 2702 2708 2714 2718 2722 2728 2733 2738 2744 2750
2882 2878 2872 2867 2860 2853 2847 2841 2834 2827 2819 2811 2805 2800 2790 2782 2772 2763 2756 2750 2744 2740 2735 2730 2724 2716 2710 2704 2698 2692 2687 2688 2692 2697 2701 2704 2708 2713 2718 2722 2726 2732 2738
2871 2866 2862 2856 2850 2844 2838 2833 2827 2821 2814 2805 2797 2789 2783 2776 2769 2761 2753 2747 2741 2735 2730 2725 2720 2715 2709 2704 2698 2693 2689 2688 2692 2694 2696 2698 2700 2703 2708 2712 2717 2721 2726
2860 2855 2850 2845 2839 2835 2830 2825 2820 2814 2808 2801 2793 2785 2777 2769 2762 2755 2749 2742 2736 2730 2725 2720 2715 2711 2707 2703 2698 2694 2691 2690 2691 2691 2691 2692 2693 2696 2700 2704 2708 2712 2716
2848 2844 2839 2834 2830 2826 2821 2817 2813 2808 2802 2797 2790 2783 2776 2769 2762 2754 2747 2740 2734 2727 2721 2716 2711 2706 2702 2699 2695 2692 2690 2688 2685 2686 2686 2687 2689 2690 2694 2697 2701 2704 2707
2836 2832 2828 2824 2821 2817 2813 2809 2806 2801 2797 2791 2786 2780 2774 2767 2760 2753 2746 2739 2733 2727 2721 2716 2710 2706 2701 2697 2694 2691 2688 2686 2685 2683 2682 2682 2683 2685 2688 2690 2694 2697 2700
2823 2820 2817 2815 2812 2809 2806 2802 2799 2795 2791 2787 2782 2777 2771 2765 2758 2752 2746 2740 2733 2727 2721 2715 2710 2705 2700 2696 2693 2689 2687 2685 2683 2682 2681 2681 2682 2682 2683 2685 2688 2691 2694
2810 2808 2807 2806 2804 2802 2798 2795 2793 2789 2786 2782 2777 2773 2768 2763 2757 2751 2746 2740 2734 2729 2722 2717 2711 2705 2700 2695 2691 2688 2685 2682 2681 2679 2678 2678 2679 2680 2681 2683 2685 2687 2690
2800 2799 2799 2798 2796 2794 2791 2789 2786 2783 2780 2776 2773 2769 2765 2760 2755 2750 2745 2740 2735 2730 2724 2719 2713 2708 2703 2698 2693 2688 2685 2682 2680 2679 2678 2677 2678 2678 2679 2681 2683 2685 2687